Погода в Сюрбей-Токаеве

Россия / Чувашская Республика     55°15′48″N   47°24′25″E
темп.,
°C
ветер,
м/с
пор.,
м/с
влажн.,
%
обл.,
%
осадки,
мм/ч
давл.,
гПа
погр.,
м
14 мая, пт
пт1400:00+15ююв348972 2.3 102061
03:00+14ююв468891 2.9 1020108
06:00+16юв378282 0.4 1020197
09:00+20ююв585998 0.4 1019472
12:00+24ю5749100 0.0 10191011
15:00+25ююз57523 0.0 10181385
18:00+23ююз35673 0.1 1018132
21:00+19ю117926 0.1 101811
15 мая, сб
сб1500:00+18ююв2283100 0.0 101819
03:00+17ююв4778100 0.0 101899
06:00+18ююв4107285 0.0 1018220
09:00+24ю5124998 0.0 1017594
12:00+27ю7123590 0.0 10181292
15:00+28ю61039100 0.0 10171387
18:00+24ю51250100 0.0 1016326
21:00+19ююв412615 0.0 1016198
16 мая, вс
вс1600:00+17ю4116019 0.0 1016160
03:00+16ю495795 0.0 1016145
06:00+17ю4116376 0.0 1016267
09:00+23ююз5104617 0.0 1016568
12:00+27ююз693849 0.0 10161161
15:00+28ююз584026 0.0 10162570
18:00+25зюз24597 0.0 101589
21:00+19юз337327 0.0 101642
17 мая, пн
пн1700:00+17юз227864 0.0 101716
03:00+16юз227766 0.0 101811
06:00+19юз116854 0.0 101859
09:00+24ююв335194 0.0 1018497
12:00+27ю243972 0.0 1017941
15:00+30ююз473670 0.0 10163273
18:00+26ююз235470 0.0 101665
21:00+21ююз115942 0.0 101711
18 мая, вт
вт1800:00+18юв336834 0.0 101733
03:00+18ююв225847 0.0 101715
06:00+20ююв25605 0.0 1017109
09:00+26ю464174 0.0 1016484
12:00+28ю5732100 0.0 10161605
15:00+29ю4730100 0.0 10163092
18:00+24ююв355599 0.0 101595
21:00+20ююв345838 0.0 101652